Back to catalog

CZ-6A DEB

AlivePO
NORAD 61489·DEBRIS·🇨🇳 China

Launched Aug 6, 2024 from Taiyuan Satellite Launch Center

Loading…

Next Passes (next 24 hours)

TLE

FreshSource: Space-Track

Epoch: Sep 13, 2026, 01:20 UTC

1 61489U 24140AAX 26256.05615343  .00010931  00000-0  13279-2 0  9995
2 61489  89.2121 279.2841 0066742 194.4140 165.5183 14.81841379105993

Track CZ-6A DEB in real time with AllMySat

Download on the App Store